Hourly Data Report for October 12, 2015

All times are specified in Local Standard Time (LST). Add 1 hour to adjust for Daylight Saving Time where and when it is observed.

GJOA HAVEN A
NUNAVUT

68°38'08.000" N
95°51'01.000" W
46.90 m
2302337
71597
YHK

Download Data

Hourly Data (October 2015)
Hourly Data Report for October 12, 2015
Temp Definition
°C
Dew Point Temp Definition
°C
Rel Hum Definition
%
Wind Dir Definition
10's deg

Wind Spd Definition
km/h
Visibility Definition
km
Stn Press Definition
kPa
Hmdx Definition


Wind Chill Definition


Weather Definition


TIME
00:00 Legend Double Dagger -3.9 -4.6 95 15 22 4.0 99.75   -10 Snow
01:00 Legend Double Dagger -4.2 -4.9 95 14 26 4.8 99.71   -11 Snow
02:00 Legend Double Dagger -4.4 -5.2 94 14 24 4.8 99.68   -11 Snow
03:00 Legend Double Dagger -4.7 -5.5 94 13 24 6.4 99.65   -12 Snow
04:00 Legend Double Dagger -5.0 -6.0 93 13 22 4.8 99.63   -12 Snow
05:00 Legend Double Dagger -5.1 -6.1 92 12 22 4.0 99.62   -12 Snow
06:00 Legend Double Dagger -5.1 -5.9 94 11 24 4.0 99.61   -12 Snow
07:00 Legend Double Dagger -5.2 -6.3 92 8 22 8.1 99.59   -12 Snow
08:00 Legend Double Dagger -5.1 -6.4 91 8 26 14.5 99.59   -13 Snow
09:00 Legend Double Dagger -5.1 -6.2 92 7 26 6.4 99.60   -13 Snow
10:00 Legend Double Dagger -5.9 -7.1 91 5 30 16.1 99.63   -14 Snow
11:00 Legend Double Dagger -6.3 -8.0 88 4 26 14.5 99.64   -14 Snow
12:00 Legend Double Dagger -7.3 -8.4 92 35 21 6.4 99.65   -15 Snow
13:00 Legend Double Dagger -8.5 -9.9 90 35 24 16.1 99.66   -17 LegendNANA
14:00 Legend Double Dagger -9.9 -11.2 90 34 24 16.1 99.68   -18 LegendNANA
15:00 Legend Double Dagger -8.6 -10.1 89 33 22 16.1 99.71   -16 LegendNANA
16:00 Legend Double Dagger -8.5 -10.0 89 32 21 16.1 99.72   -16 LegendNANA
17:00 Legend Double Dagger -7.7 -9.1 90 33 18 16.1 99.71   -15 LegendNANA
18:00 Legend Double Dagger -7.7 -9.4 88 31 17 16.1 99.69   -14 LegendNANA
19:00 Legend Double Dagger -8.0 -9.7 88 31 26 16.1 99.65   -16 Snow
20:00 Legend Double Dagger -8.1 -9.6 89 30 21 16.1 99.60   -16 Snow
21:00 Legend Double Dagger -8.1 -9.8 88 29 24 16.1 99.57   -16 Snow
22:00 Legend Double Dagger -8.3 -9.7 90 27 24 16.1 99.53   -16 Snow
23:00 Legend Double Dagger -8.0 -9.2 91 27 21 16.1 99.50   -16 LegendNANA

Notes on Data Quality.

Legend

  • E = Estimated
  • M = Missing
  • NA = Not Available
  • ‡ = Partner data that is not subject to review by the National Climate Archives
Date modified: